Location: Jastrz?bniki
(50.3667°N, 20.3833°E)
Time: 10:24:11
(UTC+00:00)

Cosmos 1707 Rocket - Pass Details

Date: 05 August 2024
Orbit: 602 x 626 km, 82.5° (Epoch: 09 September)

Event Time Altitude Azimuth Distance (km) Brightness Sun altitude
Rises 00:11:04 0° 354° (N) 2,889 8.1 -20.1°
Reaches altitude 10° 00:13:22 10° 360° (N) 1,983 7.1 -20.0°
Maximum altitude 00:17:37 47° 75° (ENE) 819 4.4 -19.7°
Enters shadow 00:20:19 21° 141° (SE) 1,407 5.1 -19.5°
